Satellite: SO-50
Catalog number: 27607
Epoch time:      12243.67614253
Element set:     851
Inclination:      064.5565 deg
RA of node:       068.2911 deg
Eccentricity:    0.0078704
Arg of perigee:   233.5217 deg
Mean anomaly:     125.8584 deg
Mean motion:   14.72473201 rev/day
Decay rate:       3.45e-06 rev/day^2
Epoch rev:           52093
Checksum:              299

Satellite: CO-55
Catalog number: 27844
Epoch time:      12243.62717992
Element set:     451
Inclination:      098.7047 deg
RA of node:       250.9293 deg
Eccentricity:    0.0010229
Arg of perigee:   013.4549 deg
Mean anomaly:     346.6918 deg
Mean motion:   14.21061166 rev/day
Decay rate:       1.51e-06 rev/day^2
Epoch rev:           47546
Checksum:              313

Satellite: CO-57
Catalog number: 27848
Epoch time:      12242.58762922
Element set:     401
Inclination:      098.7135 deg
RA of node:       249.2724 deg
Eccentricity:    0.0010150
Arg of perigee:   022.6051 deg
Mean anomaly:     337.5561 deg
Mean motion:   14.20807307 rev/day
Decay rate:        9.1e-07 rev/day^2
Epoch rev:           47525
Checksum:              290

Satellite: AO-51
Catalog number: 28375
Epoch time:      12242.89312965
Element set:     352
Inclination:      098.1553 deg
RA of node:       204.7724 deg
Eccentricity:    0.0082957
Arg of perigee:   177.1930 deg
Mean anomaly:     182.9733 deg
Mean motion:   14.40978286 rev/day
Decay rate:        8.7e-07 rev/day^2
Epoch rev:           42938
Checksum:              345

Satellite: CP3
Catalog number: 31129
Epoch time:      12243.51753468
Element set:     250
Inclination:      097.8823 deg
RA of node:       246.9288 deg
Eccentricity:    0.0099535
Arg of perigee:   251.7569 deg
Mean anomaly:     107.2773 deg
Mean motion:   14.53180387 rev/day
Decay rate:       5.25e-06 rev/day^2
Epoch rev:           28477
Checksum:              335

Satellite: CO-65
Catalog number: 32785
Epoch time:      12242.65091230
Element set:    0401
Inclination:      097.7924 deg
RA of node:       301.9437 deg
Eccentricity:    0.0014429
Arg of perigee:   177.3568 deg
Mean anomaly:     182.7732 deg
Mean motion:   14.83131826 rev/day
Decay rate:       6.24e-06 rev/day^2
Epoch rev:           23465
Checksum:              309

Satellite: PRISM
Catalog number: 33493
Epoch time:      12243.83138968
Element set:      24
Inclination:      098.1802 deg
RA of node:       026.2307 deg
Eccentricity:    0.0019708
Arg of perigee:   057.1148 deg
Mean anomaly:     303.1967 deg
Mean motion:   14.84209861 rev/day
Decay rate:      1.972e-05 rev/day^2
Epoch rev:           19482
Checksum:              308

Satellite: SOHLA-1
Catalog number: 33496
Epoch time:      12242.89034422
Element set:    0821
Inclination:      098.1097 deg
RA of node:       354.1637 deg
Eccentricity:    0.0006731
Arg of perigee:   158.0380 deg
Mean anomaly:     202.1110 deg
Mean motion:   14.70024130 rev/day
Decay rate:       3.64e-06 rev/day^2
Epoch rev:           19307
Checksum:              257

Satellite: SO-67
Catalog number: 35870
Epoch time:      12243.83594039
Element set:     281
Inclination:      097.2290 deg
RA of node:       276.9615 deg
Eccentricity:    0.0000396
Arg of perigee:   291.0717 deg
Mean anomaly:     190.9819 deg
Mean motion:   15.24343779 rev/day
Decay rate:      3.417e-05 rev/day^2
Epoch rev:           16398
Checksum:              343

Satellite: TISAT-1
Catalog number: 36799
Epoch time:      12243.80894577
Element set:     299
Inclination:      098.0581 deg
RA of node:       320.6814 deg
Eccentricity:    0.0013788
Arg of perigee:   294.1943 deg
Mean anomaly:     065.7828 deg
Mean motion:   14.82167640 rev/day
Decay rate:      1.186e-05 rev/day^2
Epoch rev:           11554
Checksum:              345

Satellite: STUDSAT
Catalog number: 36801
Epoch time:      12242.94042557
Element set:    0458
Inclination:      098.0675 deg
RA of node:       320.8703 deg
Eccentricity:    0.0011455
Arg of perigee:   280.6811 deg
Mean anomaly:     079.3115 deg
Mean motion:   14.84897625 rev/day
Decay rate:      3.734e-05 rev/day^2
Epoch rev:           11546
Checksum:              304

Satellite: FO-69
Catalog number: 37227
Epoch time:      12243.39884796
Element set:    0271
Inclination:      071.9697 deg
RA of node:       148.1906 deg
Eccentricity:    0.0017495
Arg of perigee:   187.1713 deg
Mean anomaly:     172.9202 deg
Mean motion:   14.77144147 rev/day
Decay rate:       2.68e-06 rev/day^2
Epoch rev:           04705
Checksum:              339

Satellite: FO-70
Catalog number: 37380
Epoch time:      12243.28147121
Element set:    0275
Inclination:      071.9727 deg
RA of node:       149.1032 deg
Eccentricity:    0.0018005
Arg of perigee:   184.4449 deg
Mean anomaly:     175.6549 deg
Mean motion:   14.76895720 rev/day
Decay rate:       3.50e-06 rev/day^2
Epoch rev:           04692
Checksum:              306

Satellite: ALMASAT-1
Catalog number: 38078
Epoch time:      12243.65942246
Element set:     523
Inclination:      069.4855 deg
RA of node:       148.2973 deg
Eccentricity:    0.0748264
Arg of perigee:   155.5658 deg
Mean anomaly:     208.2946 deg
Mean motion:   14.11426858 rev/day
Decay rate:     1.5010e-04 rev/day^2
Epoch rev:            2805
Checksum:              325

